Location: Newark
(37.8333°N, 119.5000°W)
Time: 15:27:09
(UTC+00:00)

Altair - Visible Passes

Search period start: 21 August 2019 00:00
Search period end: 31 August 2019 00:00
Orbit: 1501 x 1683 km, 47.2° (Epoch: 20 August)

Date Brightness Start Highest point End Pass type
(mag) Time Alt. Az. Time Alt. Az. Time Alt. Az.
21 Aug 8.2 09:36:05 37° SE 09:36:05 37° SE 09:44:31 10° ENE visible
21 Aug 7.5 11:34:06 27° WSW 11:40:14 82° NNW 11:49:46 10° ENE visible
22 Aug 8.5 09:12:16 33° ESE 09:12:16 33° ESE 09:19:13 10° ENE visible
22 Aug 7.5 11:10:17 36° WSW 11:15:02 86° NNW 11:24:36 10° ENE visible
23 Aug 8.7 08:48:25 27° ESE 08:48:25 27° ESE 08:53:53 10° ENE visible
23 Aug 7.4 10:46:26 48° SW 10:49:50 89° SSE 10:59:26 10° ENE visible
23 Aug 8.1 12:45:58 10° W 12:55:24 51° N 13:04:29 10° ENE visible
24 Aug 9.0 08:24:32 22° E 08:24:32 22° E 08:28:30 10° ENE visible
24 Aug 7.4 10:22:32 61° SW 10:24:39 84° SE 10:34:16 10° ENE visible
24 Aug 8.1 12:20:37 10° W 12:30:07 52° NNW 12:39:16 10° ENE visible
25 Aug 9.2 08:00:37 17° E 08:00:37 17° E 08:03:05 10° ENE visible
25 Aug 7.4 09:58:38 74° SSW 09:59:28 80° SE 10:09:06 10° ENE visible
25 Aug 8.0 11:56:38 15° W 12:04:50 54° NNW 12:14:03 10° ENE visible
26 Aug 9.4 07:36:41 12° E 07:36:41 12° E 07:37:37 10° E visible
26 Aug 7.5 09:34:41 74° ESE 09:34:41 74° ESE 09:43:55 10° ENE visible
26 Aug 7.9 11:32:42 21° W 11:39:33 56° NNW 11:48:51 10° ENE visible
27 Aug 7.7 09:10:43 61° E 09:10:43 61° E 09:18:44 10° ENE visible
27 Aug 7.9 11:08:44 28° W 11:14:17 58° NNW 11:23:39 10° ENE visible
28 Aug 8.0 08:46:45 49° E 08:46:45 49° E 08:53:33 10° ENE visible
28 Aug 7.8 10:44:45 36° W 10:49:01 60° NNW 10:58:28 10° ENE visible
28 Aug 8.3 12:45:53 10° WNW 12:55:15 49° N 13:04:16 10° E visible
29 Aug 8.4 08:22:45 38° ENE 08:22:45 38° ENE 08:28:21 10° ENE visible
29 Aug 7.8 10:20:45 46° WNW 10:23:45 62° NNW 10:33:17 10° ENE visible
29 Aug 8.3 12:20:34 10° WNW 12:29:57 49° N 12:38:59 10° ENE visible
30 Aug 8.7 07:58:44 30° ENE 07:58:44 30° ENE 08:03:08 10° ENE visible
30 Aug 7.7 09:56:43 57° WNW 09:58:29 65° NNW 10:08:05 10° ENE visible
30 Aug 8.2 11:55:14 10° WNW 12:04:39 48° N 12:13:43 10° ENE visible
